Weather History for Nicolet, QC

Change the Weather History Date:

Thursday, May 15, 2014

  Actual Average Record
Temperature  
Mean Temperature 68 °F -  
Max Temperature 84 °F - - ()
Min Temperature 53 °F - - ()
Cooling Degree Days 4    
Growing Degree Days 18 (Base 50)    
Moisture  
Dew Point 58 °F    
Average Humidity 67    
Maximum Humidity 93    
Minimum Humidity 43    
Precipitation  
Precipitation 0.00 in - - ()
Sea Level Pressure  
Sea Level Pressure 30.02 in    
Wind  
Wind Speed 8 mph ()    
Max Wind Speed 18 mph    
Max Gust Speed 28 mph    
T = Trace of Precipitation, MM = Missing Value Source: Averaged Metar Reports

Daily Weather History Graph

Daily Weather History Graph

Search for Another Location

Airport:

Trip Planner

Search our weather history database for the weather conditions in past years. The results will help you decide how hot, cold, wet, or windy it might be!

Date:

Astronomy

May. 15, 2014 Rise Set
Actual Time 5:17 AM EDT 8:16 PM EDT
Civil Twilight 4:42 AM EDT 8:52 PM EDT
Nautical Twilight 3:57 AM EDT 9:37 PM EDT
Astronomical Twilight 3:03 AM EDT 10:32 PM EDT
Moon 9:21 PM EDT (5/15) 6:03 AM EDT (5/15)
Length of Visible Light 16h 09m
Length of Day
14h 59m
Full, 99% of the Moon is Illuminated
May 15
Full
May 21
Last Quarter
May 28
New
Jun 5
First Quarter
Jun 13
Full

Hourly Weather History & Observations

Time (EDT) Temp. Heat Index Dew Point Humidity Pressure Visibility Wind Dir Wind Speed Gust Speed Precip Events Conditions
12:00 AM 58.8 °F - 53.6 °F 83% 30.10 in - NE 6.9 mph - N/A   Unknown
1:00 AM 57.2 °F - 52.9 °F 85% 30.09 in - NE 6.9 mph - N/A   Unknown
2:00 AM 56 °F - 53 °F 86% 30.09 in - NE 5.8 mph - -  
2:00 AM 56.5 °F - 53.1 °F 88% 30.09 in - NE 5.8 mph - N/A   Unknown
3:00 AM 55.6 °F - 52.7 °F 90% 30.08 in - NE 6.9 mph - N/A   Unknown
4:00 AM 55.2 °F - 52.9 °F 92% 30.07 in - NE 6.9 mph - N/A   Unknown
5:00 AM 54.3 °F - 52.3 °F 93% 30.06 in - NE 4.6 mph - N/A   Unknown
6:00 AM 55.8 °F - 53.1 °F 91% 30.08 in - ENE 3.5 mph - N/A   Unknown
7:00 AM 59.2 °F - 52.7 °F 79% 30.09 in - ENE 3.5 mph - N/A   Unknown
8:00 AM 64 °F - 56 °F 67% 30.09 in - SSE 3.5 mph - -  
8:00 AM 64.4 °F - 55.8 °F 73% 30.09 in - SSE 3.5 mph - N/A   Unknown
9:00 AM 67.8 °F - 56.3 °F 67% 30.09 in - South 3.5 mph - N/A   Unknown
10:00 AM 71.6 °F - 60.6 °F 68% 30.08 in - South 6.9 mph - N/A   Unknown
11:00 AM 74.1 °F - 59.9 °F 61% 30.05 in - SSW 9.2 mph - N/A   Unknown
12:00 PM 79.0 °F - 62.1 °F 56% 30.03 in - South 11.5 mph 17.3 mph N/A   Unknown
1:00 PM 81.1 °F 82.3 °F 62.6 °F 53% 30.00 in - SSW 10.4 mph 17.3 mph N/A   Unknown
2:00 PM 83 °F - 64 °F 43% 29.98 in - South 17.3 mph - -  
2:00 PM 82.9 °F 84.2 °F 63.9 °F 52% 29.98 in - South 17.3 mph 24.2 mph N/A   Unknown
3:00 PM 81.1 °F 82.4 °F 63.0 °F 54% 29.97 in - South 15.0 mph 21.9 mph N/A   Unknown
4:00 PM 84.7 °F 85.6 °F 63.0 °F 48% 29.94 in - South 16.1 mph 25.3 mph N/A   Unknown
5:00 PM 82.6 °F 83.4 °F 62.1 °F 50% 29.93 in - South 18.4 mph 27.6 mph N/A   Unknown
6:00 PM 81.3 °F 81.8 °F 59.9 °F 48% 29.93 in - South 16.1 mph 27.6 mph N/A   Unknown
7:00 PM 79.7 °F - 59.9 °F 51% 29.93 in - South 13.8 mph 24.2 mph N/A   Unknown
8:00 PM 78 °F - 61 °F 47% 29.95 in - South 12.7 mph - -  
8:00 PM 76.1 °F - 61.3 °F 60% 29.95 in - South 12.7 mph 20.7 mph N/A   Unknown
9:00 PM 75.9 °F - 61.5 °F 61% 29.97 in - South 13.8 mph 21.9 mph N/A   Unknown
10:00 PM 74.5 °F - 61.3 °F 63% 29.98 in - South 15.0 mph 21.9 mph N/A   Unknown
11:00 PM 72.9 °F - 61.5 °F 67% 29.98 in - South 10.4 mph 18.4 mph N/A   Unknown